Starlink 6380

operational
NORAD ID: 57344 Int'l Des: 2023-099 Owner: SPXS Country: US Constellation: starlink
LEOCIRCULAR

Starlink 6380について

説明を読み込み中...

リアルタイム位置

3D地球を読み込み中...

次回通過

高度履歴

Altitude vs Time

uPlot chart will show altitude changes over time

軌道要素

1 57344U 23099S 25258.35396661 .00000126 00000-0 24428-4 0 9990
2 57344 43.0030 121.5142 0001184 271.2900 88.7807 15.02534013119740
Epoch: Sep 15, 2025 • Age: 16 hours

現在のステータス

高度 562.4 km
速度 7.59 km/s
衛星直下点 40.34°N, 136.35°W
打ち上げ日 Jul 16, 2023
運用期間 2.1 years
タイプ internet

技術仕様

分類 Payload
質量 305.00 kg
乾燥質量 290.00 kg
総質量 305.00 kg
長さ 0.20 m
直径 2.80 m
スパン 9.00 m
形状 Box + pan
製造者 SPXS
バスタイプ Starlink
フェーズステータス In Orbit
所有者/国 SPXS/US

大規模コンステレーション

Loading constellations...